Weather History for Davenport, IA

Change the Weather History Date:

Tuesday, February 5, 2013

  Actual Average Record
Temperature  
Mean Temperature 23 °F 23 °F  
Max Temperature 34 °F 32 °F 54 °F (2005)
Min Temperature 12 °F 15 °F -17 °F (1979)
Degree Days  
Heating Degree Days 42 42  
Month to date heating degree days 236 211  
Since 1 July heating degree days 3932 4147  
Cooling Degree Days 0 0  
Month to date cooling degree days 0 0  
Year to date cooling degree days 0 0  
Moisture  
Dew Point 24 °F    
Average Humidity 84    
Maximum Humidity 92    
Minimum Humidity 75    
Precipitation  
Precipitation T in 0.05 in 0.53 in (1953)
Month to date precipitation 0.04 0.20  
Year to date precipitation 1.92 1.39  
Snow  
Snow T in - - ()
Month to date snowfall 0.5  
Since 1 July snowfall 9.0  
Snow Depth 1.00 in    
Sea Level Pressure  
Sea Level Pressure 29.95 in    
Wind  
Wind Speed 11 mph (West)    
Max Wind Speed 22 mph    
Max Gust Speed 26 mph    
Visibility 6 miles    
Events Snow    
T = Trace of Precipitation, MM = Missing Value Source: NWS Daily Summary

Daily Weather History Graph

Daily Weather History Graph

Search for Another Location

Airport:

Trip Planner

Search our weather history database for the weather conditions in past years. The results will help you decide how hot, cold, wet, or windy it might be!

Date:

Astronomy

Feb. 05, 2013 Rise Set
Actual Time 7:09 AM CST 5:23 PM CST
Civil Twilight 6:40 AM CST 5:52 PM CST
Nautical Twilight 6:07 AM CST 6:25 PM CST
Astronomical Twilight 5:35 AM CST 6:58 PM CST
Moon 2:53 AM CST (2/5) 12:39 PM CST (2/5)
Length of Visible Light 11h 12m
Length of Day
10h 13m
Waning Crescent, 26% of the Moon is Illuminated
Feb 5
Waning Crescent
Feb 10
New
Feb 17
First Quarter
Feb 25
Full
Mar 4
Last Quarter

Hourly Weather History & Observations

Time (CST) Temp. Windchill Dew Point Humidity Pressure Visibility Wind Dir Wind Speed Gust Speed Precip Events Conditions
12:52 AM 12.9 °F 6.9 °F 9.0 °F 84% 29.99 in 7.0 mi South 3.5 mph - N/A   Clear
1:52 AM 16.0 °F 7.4 °F 12.0 °F 84% 29.95 in 6.0 mi South 5.8 mph - N/A   Scattered Clouds
2:52 AM 19.0 °F 9.0 °F 14.0 °F 81% 29.95 in 7.0 mi South 8.1 mph - N/A   Overcast
3:52 AM 19.0 °F 9.0 °F 14.0 °F 81% 29.93 in 4.0 mi South 8.1 mph - 0.00 in Snow Light Snow
4:52 AM 19.9 °F 9.3 °F 15.1 °F 81% 29.91 in 6.0 mi SSW 9.2 mph - 0.00 in   Haze
5:52 AM 21.0 °F 11.4 °F 17.1 °F 85% 29.89 in 5.0 mi South 8.1 mph - N/A   Overcast
6:52 AM 21.9 °F 11.0 °F 18.0 °F 85% 29.89 in 5.0 mi SSW 10.4 mph - N/A   Overcast
7:52 AM 21.9 °F 11.7 °F 19.0 °F 89% 29.88 in 3.0 mi SSW 9.2 mph - N/A   Clear
8:52 AM 24.1 °F 12.5 °F 19.9 °F 84% 29.87 in 3.0 mi SSW 12.7 mph 20.7 mph N/A   Clear
9:52 AM 28.0 °F 15.7 °F 21.9 °F 78% 29.85 in 4.0 mi SW 17.3 mph - N/A   Haze
10:52 AM 30.0 °F 17.9 °F 24.1 °F 79% 29.87 in 4.0 mi WSW 18.4 mph - N/A   Haze
11:52 AM 32.0 °F 21.6 °F 26.1 °F 79% 29.86 in 5.0 mi WSW 15.0 mph - N/A   Haze
12:52 PM 32.0 °F 20.5 °F 27.0 °F 82% 29.88 in 5.0 mi West 18.4 mph - N/A   Haze
1:05 PM 32.0 °F 20.8 °F 26.6 °F 80% 29.85 in 4.0 mi West 17.3 mph - N/A   Haze
1:33 PM 32.0 °F 22.5 °F 26.6 °F 80% 29.85 in 5.0 mi West 12.7 mph - N/A   Haze
1:40 PM 33.8 °F 24.3 °F 26.6 °F 75% 29.85 in 5.0 mi WNW 13.8 mph - N/A   Haze
1:52 PM 33.1 °F 23.4 °F 28.0 °F 82% 29.88 in 5.0 mi West 13.8 mph - N/A   Haze
2:49 PM 33.8 °F 23.5 °F 28.4 °F 81% 29.87 in 5.0 mi WNW 16.1 mph - N/A   Haze
2:52 PM 34.0 °F 23.4 °F 28.9 °F 82% 29.91 in 4.0 mi WNW 17.3 mph - N/A   Haze
3:03 PM 33.8 °F 23.5 °F 28.4 °F 81% 29.88 in 4.0 mi WNW 16.1 mph - N/A   Haze
3:52 PM 33.1 °F 23.9 °F 28.0 °F 82% 29.95 in 5.0 mi NW 12.7 mph 20.7 mph N/A   Haze
4:52 PM 34.0 °F 26.0 °F 28.0 °F 79% 29.98 in 6.0 mi NW 10.4 mph - N/A   Haze
5:49 PM 33.8 °F 25.8 °F 28.4 °F 81% 29.96 in 8.0 mi WNW 10.4 mph - N/A   Overcast
5:52 PM 34.0 °F 26.0 °F 28.9 °F 82% 29.99 in 8.0 mi WNW 10.4 mph - N/A   Overcast
6:36 PM 33.8 °F 26.4 °F 28.4 °F 81% 29.98 in 10.0 mi NW 9.2 mph - N/A   Overcast
6:52 PM 34.0 °F 24.2 °F 28.0 °F 79% 30.02 in 10.0 mi NW 15.0 mph - N/A   Overcast
7:11 PM 33.8 °F 25.3 °F 28.4 °F 81% 30.00 in 10.0 mi NNW 11.5 mph - N/A   Overcast
7:52 PM 33.1 °F 23.9 °F 26.1 °F 75% 30.04 in 10.0 mi NW 12.7 mph - N/A   Overcast
7:59 PM 33.8 °F 25.8 °F 26.6 °F 75% 30.02 in 10.0 mi NW 10.4 mph - N/A   Overcast
8:52 PM 33.1 °F 26.9 °F 26.1 °F 75% 30.06 in 10.0 mi NW 6.9 mph - N/A   Overcast
9:52 PM 30.9 °F 26.2 °F 25.0 °F 79% 30.09 in 10.0 mi WNW 4.6 mph - N/A   Clear
10:18 PM 30.2 °F 23.4 °F 26.6 °F 86% 30.07 in 9.0 mi WNW 6.9 mph - N/A   Mostly Cloudy
10:52 PM 30.9 °F 24.3 °F 25.0 °F 79% 30.11 in 9.0 mi WNW 6.9 mph - N/A   Overcast
11:52 PM 28.9 °F 22.8 °F 25.0 °F 85% 30.13 in 8.0 mi WNW 5.8 mph - N/A   Overcast